Home > Weather > Easter Island > Past weeks

Flag for Chile Weather for the Past 2 Weeks in Easter Island, Chile

Now
79 °F

Partly sunny.


Feels Like: 81 °F
Forecast: N/A
Wind: 18 mph from Southeast

Location: Isla De Pascua

Current Time: Feb 11, 2016 at 4:29:28 PM

Latest Report: Feb 11, 2016 at 4:00 PM


Visibility: N/A

Pressure: 30.15 "Hg

Humidity: 70%

Dew point: 68 °F

Location of Easter IslandLocation

Historic Weather in Easter Island — Graph

°F

Easter Island Temperature Yesterday

Maximum temperature yesterday: 81 °F (at 3:00 PM)
Minimum temperature yesterday: 68 °F (at 6:00 AM)
Average temperature yesterday: 74 °F

High & Low Weather Summary for the Past Weeks

 TemperatureHumidityPressure
High82 °F (Jan 30, 4:00 PM)94% (Jan 28, 5:00 AM)30.24 "Hg (Jan 28, 5:00 AM)
Low66 °F (Jan 28, 1:00 AM)51% (Feb 10, 4:00 PM)30.07 "Hg (Jan 29, 6:00 AM)
Average75 °F76%30.15 "Hg
* Reported Jan 27 3:00 PM — Feb 11 3:00 PM, Easter Island, Weather by CustomWeather, © 2016

Note: Actual official high and low records may vary slightly from our data, if they occured in-between our weather recording intervals... More about our weather records

Advertising

Easter Island Weather History for the Previous 24 Hours

 ConditionsComfort  
Time TempWeatherWind HumidityBarometerVisibility
3:00 PM
Thu, Feb 11
79 °FScattered clouds.17 mph70%30.15 "HgN/A
2:00 PM81 °FScattered clouds.20 mph66%30.18 "HgN/A
1:00 PM81 °FScattered clouds.20 mph62%30.18 "HgN/A
12:00 PM81 °FScattered clouds.16 mph58%30.18 "HgN/A
11:00 AM77 °FScattered clouds.13 mph61%30.18 "HgN/A
10:00 AM75 °FScattered clouds.9 mph69%30.18 "HgN/A
9:00 AM72 °FScattered clouds.8 mph83%30.18 "HgN/A
8:00 AM70 °FPassing clouds.9 mph88%30.15 "HgN/A
7:00 AM73 °FSprinkles. Passing clouds.12 mph83%30.15 "Hg4 mi
6:00 AM72 °FPassing clouds.8 mph83%30.15 "HgN/A
5:00 AM72 °FPassing clouds.8 mph83%30.15 "HgN/A
4:00 AM70 °FPassing clouds.8 mph83%30.15 "HgN/A
3:00 AM70 °FPassing clouds.12 mph83%30.18 "HgN/A
2:00 AM70 °FPassing clouds.9 mph83%30.21 "HgN/A
1:00 AM70 °FPassing clouds.10 mph83%30.21 "HgN/A
12:00 AM72 °FPassing clouds.8 mph78%30.21 "HgN/A
11:00 PM
Wed, Feb 10
73 °FPassing clouds.9 mph78%30.18 "HgN/A
10:00 PM73 °FScattered clouds.10 mph74%30.18 "HgN/A
9:00 PM75 °FScattered clouds.10 mph69%30.15 "HgN/A
8:00 PM77 °FScattered clouds.14 mph65%30.15 "HgN/A
7:00 PM79 °FScattered clouds.15 mph58%30.15 "HgN/A
6:00 PM79 °FScattered clouds.16 mph58%30.15 "HgN/A
4:00 PM81 °FScattered clouds.17 mph51%30.18 "HgN/A
Weather by CustomWeather, © 2016

See weather overviewHow to use our weather pages